When you browse on this site, cookies collect data to enhance your experience and personalize the content and advertising you see.
Visit our Privacy Policy to learn more. By continuing to use the site, you agree to this use of cookies and data.
  • In Hungary
  • List of Countries
  • For 7 days
  • Water Temperature
  • Satellite Maps
  • Weather Map
  • News
  • Weather Widgets
  • user-avatar
    Login

    Hourly Weather Taymasovo

    Today, 20 November, Tuesday

    Time Temperature Precipitation Wind Pressure Humidity
    00:00 -3°C° 0 mm 1 mps 749 mmHg 55%
    01:00 -3°C° 0 mm 1 mps 749 mmHg 57%
    02:00 -3°C° 0 mm 1 mps 749 mmHg 59%
    03:00 -5°C° 0 mm 2 mps 749 mmHg 61%
    04:00 -5°C° 0 mm 2 mps 749 mmHg 63%
    05:00 -5°C° 0 mm 2 mps 749 mmHg 66%
    06:00 -5°C° 0 mm 2 mps 749 mmHg 70%
    07:00 -3°C° 0 mm 1 mps 748 mmHg 73%
    08:00 -5°C° 0 mm 2 mps 748 mmHg 75%
    09:00 -4°C° 0 mm 2 mps 748 mmHg 76%
    10:00 -4°C° 0 mm 2 mps 748 mmHg 78%
    11:00 -3°C° 0 mm 2 mps 748 mmHg 79%
    12:00 -3°C° 0 mm 2 mps 748 mmHg 79%
    13:00 -2°C° 0 mm 2 mps 748 mmHg 80%
    14:00 -3°C° 0 mm 2 mps 747 mmHg 82%
    15:00 -3°C° 0 mm 2 mps 747 mmHg 84%
    16:00 -3°C° 0 mm 2 mps 747 mmHg 87%
    17:00 -3°C° 0 mm 2 mps 747 mmHg 88%
    18:00 -3°C° 0 mm 2 mps 747 mmHg 90%
    19:00 -4°C° 0 mm 2 mps 747 mmHg 92%
    20:00 -4°C° 0 mm 2 mps 746 mmHg 93%
    21:00 -4°C° 0 mm 2 mps 746 mmHg 94%
    22:00 -4°C° 0 mm 2 mps 746 mmHg 95%
    23:00 -4°C° 0.1 mm 2 mps 745 mmHg 95%

    Tomorrow, 21 November, Wednesday

    Time Temperature Precipitation Wind Pressure Humidity
    00:00 -4°C° 0.1 mm 2 mps 745 mmHg 95%
    01:00 -4°C° 0.1 mm 2 mps 744 mmHg 96%
    02:00 -4°C° 0 mm 2 mps 744 mmHg 95%
    03:00 -4°C° 0 mm 2 mps 744 mmHg 95%
    04:00 -5°C° 0 mm 3 mps 743 mmHg 95%
    05:00 -5°C° 0 mm 3 mps 743 mmHg 94%
    06:00 -5°C° 0 mm 3 mps 742 mmHg 93%
    07:00 -5°C° 0 mm 3 mps 742 mmHg 92%
    08:00 -5°C° 0 mm 3 mps 741 mmHg 90%
    09:00 -5°C° 0 mm 4 mps 741 mmHg 88%
    10:00 -4°C° 0 mm 4 mps 740 mmHg 87%
    11:00 -4°C° 0.1 mm 4 mps 740 mmHg 85%
    12:00 -5°C° 0.1 mm 5 mps 739 mmHg 83%
    13:00 -5°C° 0.1 mm 5 mps 738 mmHg 82%
    14:00 -5°C° 0.2 mm 5 mps 737 mmHg 83%
    15:00 -5°C° 0.2 mm 5 mps 737 mmHg 85%
    16:00 -5°C° 0.2 mm 6 mps 736 mmHg 87%
    17:00 -5°C° 0.3 mm 6 mps 736 mmHg 87%
    18:00 -6°C° 0.3 mm 6 mps 735 mmHg 88%
    19:00 -6°C° 0.3 mm 6 mps 734 mmHg 88%
    20:00 -6°C° 0.2 mm 6 mps 734 mmHg 88%
    21:00 -6°C° 0.2 mm 6 mps 734 mmHg 88%
    22:00 -6°C° 0.2 mm 5 mps 733 mmHg 88%
    23:00 -6°C° 0.1 mm 5 mps 733 mmHg 88%

    Day after tomorrow, 22 November, Thursday

    Time Temperature Precipitation Wind Pressure Humidity
    00:00 -7°C° 0.1 mm 5 mps 733 mmHg 87%
    01:00 -7°C° 0.1 mm 5 mps 732 mmHg 87%
    02:00 -8°C° 0 mm 6 mps 733 mmHg 86%
    03:00 -9°C° 0 mm 6 mps 733 mmHg 85%
    04:00 -9°C° 0 mm 6 mps 733 mmHg 83%
    05:00 -9°C° 0 mm 6 mps 733 mmHg 83%
    06:00 -9°C° 0 mm 6 mps 733 mmHg 83%
    07:00 -10°C° 0 mm 6 mps 734 mmHg 84%
    08:00 -10°C° 0 mm 6 mps 734 mmHg 82%
    09:00 -10°C° 0 mm 5 mps 734 mmHg 81%
    10:00 -10°C° 0 mm 5 mps 735 mmHg 79%
    11:00 -10°C° 0 mm 5 mps 735 mmHg 77%
    12:00 -9°C° 0 mm 6 mps 735 mmHg 75%
    13:00 -9°C° 0 mm 6 mps 735 mmHg 73%
    14:00 -10°C° 0 mm 6 mps 735 mmHg 76%
    15:00 -10°C° 0 mm 5 mps 735 mmHg 79%
    16:00 -11°C° 0 mm 5 mps 735 mmHg 81%
    17:00 -11°C° 0 mm 5 mps 735 mmHg 82%
    18:00 -11°C° 0 mm 5 mps 735 mmHg 84%
    19:00 -11°C° 0 mm 5 mps 735 mmHg 85%
    20:00 -11°C° 0.1 mm 6 mps 734 mmHg 85%
    21:00 -11°C° 0.1 mm 7 mps 734 mmHg 85%
    22:00 -11°C° 0.1 mm 8 mps 733 mmHg 86%
    23:00 -11°C° 0.3 mm 8 mps 733 mmHg 86%

    23 November, Friday

    Time Temperature Precipitation Wind Pressure Humidity
    00:00 -11°C° 0.3 mm 8 mps 732 mmHg 86%
    01:00 -11°C° 0.3 mm 9 mps 732 mmHg 87%
    02:00 -11°C° 0.3 mm 8 mps 732 mmHg 87%
    03:00 -11°C° 0.3 mm 8 mps 731 mmHg 88%
    04:00 -11°C° 0.3 mm 8 mps 731 mmHg 88%
    05:00 -11°C° 0.2 mm 7 mps 731 mmHg 89%
    06:00 -10°C° 0.2 mm 6 mps 731 mmHg 90%
    07:00 -10°C° 0.2 mm 5 mps 731 mmHg 91%
    08:00 -8°C° 0.2 mm 4 mps 731 mmHg 91%
    09:00 -8°C° 0.2 mm 4 mps 731 mmHg 92%
    10:00 -8°C° 0.2 mm 4 mps 731 mmHg 92%
    11:00 -9°C° 0.4 mm 4 mps 731 mmHg 91%
    12:00 -10°C° 0.4 mm 5 mps 732 mmHg 91%
    13:00 -10°C° 0.4 mm 5 mps 732 mmHg 90%
    14:00 -12°C° 0.2 mm 7 mps 733 mmHg 86%
    15:00 -13°C° 0.2 mm 8 mps 734 mmHg 82%
    16:00 -15°C° 0.2 mm 9 mps 734 mmHg 78%
    17:00 -15°C° 0 mm 9 mps 735 mmHg 77%
    18:00 -16°C° 0 mm 9 mps 736 mmHg 76%
    19:00 -17°C° 0 mm 9 mps 738 mmHg 75%
    20:00 -18°C° 0 mm 8 mps 739 mmHg 79%
    21:00 -18°C° 0 mm 7 mps 740 mmHg 83%
    22:00 -18°C° 0 mm 6 mps 741 mmHg 87%
    23:00 -18°C° 0 mm 6 mps 741 mmHg 89%

    24 November, Saturday

    Time Temperature Precipitation Wind Pressure Humidity
    00:00 -18°C° 0 mm 5 mps 742 mmHg 90%
    01:00 -17°C° 0 mm 4 mps 743 mmHg 91%
    02:00 -17°C° 0 mm 4 mps 743 mmHg 92%
    03:00 -17°C° 0 mm 4 mps 744 mmHg 92%
    04:00 -17°C° 0 mm 4 mps 744 mmHg 92%
    05:00 -17°C° 0 mm 5 mps 745 mmHg 92%
    06:00 -17°C° 0 mm 5 mps 745 mmHg 92%
    07:00 -17°C° 0 mm 5 mps 745 mmHg 92%
    08:00 -15°C° 0 mm 5 mps 746 mmHg 91%
    09:00 -14°C° 0 mm 5 mps 746 mmHg 90%
    10:00 -15°C° 0 mm 6 mps 747 mmHg 89%
    11:00 -14°C° 0 mm 6 mps 746 mmHg 87%
    12:00 -14°C° 0 mm 6 mps 746 mmHg 84%
    13:00 -13°C° 0 mm 7 mps 746 mmHg 81%
    14:00 -13°C° 0 mm 7 mps 746 mmHg 81%
    15:00 -14°C° 0 mm 7 mps 746 mmHg 82%
    16:00 -15°C° 0 mm 8 mps 746 mmHg 82%
    17:00 -15°C° 0 mm 8 mps 746 mmHg 82%
    18:00 -15°C° 0 mm 9 mps 745 mmHg 83%
    19:00 -14°C° 0 mm 9 mps 745 mmHg 84%
    20:00 -14°C° 0 mm 9 mps 745 mmHg 82%
    21:00 -14°C° 0 mm 9 mps 745 mmHg 81%
    22:00 -12°C° 0 mm 9 mps 744 mmHg 80%
    23:00 -12°C° 0 mm 9 mps 744 mmHg 80%

    25 November, Sunday

    Time Temperature Precipitation Wind Pressure Humidity
    00:00 -12°C° 0 mm 9 mps 744 mmHg 81%
    01:00 -12°C° 0 mm 8 mps 744 mmHg 81%
    02:00 -12°C° 0.1 mm 8 mps 744 mmHg 82%
    03:00 -11°C° 0.1 mm 8 mps 744 mmHg 84%
    04:00 -11°C° 0.1 mm 8 mps 744 mmHg 86%
    05:00 -11°C° 0.1 mm 7 mps 744 mmHg 87%
    06:00 -11°C° 0.1 mm 7 mps 744 mmHg 88%
    07:00 -11°C° 0.1 mm 7 mps 744 mmHg 89%
    08:00 -11°C° 0 mm 7 mps 745 mmHg 89%
    09:00 -10°C° 0 mm 6 mps 745 mmHg 90%
    10:00 -10°C° 0 mm 6 mps 745 mmHg 90%
    11:00 -9°C° 0 mm 6 mps 745 mmHg 90%
    12:00 -9°C° 0 mm 6 mps 745 mmHg 90%
    13:00 -9°C° 0 mm 6 mps 745 mmHg 90%
    14:00 -8°C° 0 mm 5 mps 745 mmHg 90%
    15:00 -8°C° 0 mm 5 mps 745 mmHg 91%
    16:00 -8°C° 0 mm 5 mps 745 mmHg 91%
    17:00 -10°C° 0.1 mm 5 mps 745 mmHg 92%
    18:00 -10°C° 0.1 mm 5 mps 745 mmHg 92%
    19:00 -9°C° 0.1 mm 4 mps 745 mmHg 93%
    20:00 -9°C° 0.1 mm 4 mps 745 mmHg 93%
    21:00 -9°C° 0.1 mm 4 mps 745 mmHg 93%
    22:00 -9°C° 0.1 mm 4 mps 745 mmHg 93%
    23:00 -9°C° 0 mm 4 mps 745 mmHg 93%
    Show more